TimeEDT,TemperatureF,Dew PointF,Humidity,Sea Level PressureIn,VisibilityMPH,Wind Direction,Wind SpeedMPH,Gust SpeedMPH,PrecipitationIn,Events,Conditions,WindDirDegrees,DateUTC
12:53 AM,28.0,19.9,72,30.06,10.0,NW,10.4,16.1,N/A,,Overcast,320,2013-03-23 04:53:00
1:53 AM,27.0,19.9,75,30.05,10.0,North,5.8,-,N/A,,Overcast,360,2013-03-23 05:53:00
2:53 AM,27.0,19.9,75,30.05,10.0,North,4.6,-,N/A,,Overcast,360,2013-03-23 06:53:00
3:46 AM,26.6,19.4,74,30.01,10.0,WNW,8.1,-,N/A,,Overcast,300,2013-03-23 07:46:00
3:53 AM,26.1,19.9,78,30.06,10.0,NNW,5.8,-,N/A,,Overcast,340,2013-03-23 07:53:00
4:53 AM,26.1,19.9,78,30.06,10.0,NW,4.6,-,N/A,,Overcast,310,2013-03-23 08:53:00
5:53 AM,25.0,19.9,81,30.07,10.0,NW,8.1,-,N/A,,Overcast,310,2013-03-23 09:53:00
6:53 AM,25.0,21.0,85,30.08,10.0,Calm,Calm,-,N/A,,Overcast,0,2013-03-23 10:53:00
7:53 AM,25.0,19.9,81,30.09,10.0,NNW,4.6,-,N/A,,Overcast,340,2013-03-23 11:53:00
8:53 AM,25.0,19.9,81,30.10,10.0,North,6.9,-,N/A,,Overcast,350,2013-03-23 12:53:00
9:53 AM,26.1,19.9,78,30.12,10.0,NNW,5.8,-,N/A,,Overcast,340,2013-03-23 13:53:00
10:53 AM,27.0,21.0,78,30.13,10.0,Variable,5.8,-,N/A,,Overcast,0,2013-03-23 14:53:00
11:53 AM,28.9,21.9,75,30.12,10.0,NNW,4.6,-,N/A,,Overcast,330,2013-03-23 15:53:00
12:08 PM,28.4,21.2,74,30.08,10.0,Variable,4.6,-,N/A,,Overcast,0,2013-03-23 16:08:00
12:53 PM,30.0,23.0,75,30.13,10.0,WSW,4.6,-,N/A,,Overcast,240,2013-03-23 16:53:00
1:53 PM,32.0,21.9,66,30.13,10.0,Calm,Calm,-,N/A,,Overcast,0,2013-03-23 17:53:00
2:53 PM,33.1,23.0,66,30.11,10.0,West,6.9,-,N/A,,Overcast,260,2013-03-23 18:53:00
3:48 PM,33.8,23.0,65,30.05,10.0,West,5.8,-,N/A,,Overcast,280,2013-03-23 19:48:00
3:53 PM,34.0,21.9,61,30.10,10.0,West,6.9,-,N/A,,Overcast,260,2013-03-23 19:53:00
4:53 PM,35.1,21.9,59,30.10,10.0,North,4.6,-,N/A,,Overcast,360,2013-03-23 20:53:00
5:53 PM,33.1,21.9,64,30.10,10.0,NW,10.4,-,N/A,,Overcast,310,2013-03-23 21:53:00
6:11 PM,33.8,21.2,60,30.05,10.0,North,6.9,-,N/A,,Overcast,350,2013-03-23 22:11:00
6:53 PM,33.1,23.0,66,30.11,10.0,NNW,8.1,-,N/A,,Overcast,330,2013-03-23 22:53:00
7:53 PM,32.0,21.9,66,30.11,10.0,North,5.8,-,N/A,,Overcast,10,2013-03-23 23:53:00
8:53 PM,32.0,21.9,66,30.12,10.0,WNW,4.6,-,N/A,,Overcast,300,2013-03-24 00:53:00
9:11 PM,32.0,21.2,64,30.07,10.0,WNW,4.6,-,N/A,,Overcast,300,2013-03-24 01:11:00
9:53 PM,30.9,21.9,69,30.12,10.0,NW,4.6,-,N/A,,Overcast,320,2013-03-24 01:53:00
10:53 PM,30.9,19.9,64,30.11,10.0,Calm,Calm,-,N/A,,Overcast,0,2013-03-24 02:53:00
11:53 PM,27.0,19.9,75,30.09,10.0,Calm,Calm,-,N/A,,Mostly Cloudy,0,2013-03-24 03:53:00